This is the latest recevied weather packets stored in our database for station/object KC1OEK-13. If no packets are shown the sender has not sent any weather packets the latest 10 day(s).
| Time | Temp. | Humidity | Pressure | Rain* | Wind** | Luminosity | Snow |
|---|---|---|---|---|---|---|---|
| 1788133918 | 21.67° C | 94% | 1019.8 hPa | 0 mm | - | 0 W/m² | - |
| 1788133613 | 21.67° C | 94% | 1019.8 hPa | 0 mm | - | 0 W/m² | - |
| 1788133309 | 21.67° C | 93% | 1020 hPa | 0 mm | - | 0 W/m² | - |
| 1788133004 | 22.22° C | 92% | 1019.8 hPa | 0 mm | - | 0 W/m² | - |
| 1788132699 | 22.22° C | 92% | 1019.6 hPa | 0 mm | - | 0 W/m² | - |
| 1788132396 | 22.22° C | 91% | 1019.7 hPa | 0 mm | - | 1 W/m² | - |
| 1788132091 | 22.22° C | 91% | 1020 hPa | 0 mm | - | 1 W/m² | - |
| 1788131787 | 22.22° C | 90% | 1020 hPa | 0 mm | - | 2 W/m² | - |
| 1788131486 | 22.22° C | 90% | 1019.9 hPa | 0 mm | - | 2 W/m² | - |
| 1788131182 | 22.22° C | 90% | 1019.8 hPa | 0 mm | - | 3 W/m² | - |
| 1788130882 | 22.22° C | 89% | 1019.7 hPa | 0 mm | - | 4 W/m² | - |
| 1788130577 | 22.78° C | 88% | 1019.9 hPa | 0 mm | - | 4 W/m² | - |
| 1788130272 | 22.78° C | 88% | 1020 hPa | 0 mm | - | 2 W/m² | - |
| 1788129970 | 22.78° C | 87% | 1020 hPa | 0 mm | - | 2 W/m² | - |
| 1788129667 | 22.78° C | 87% | 1020 hPa | 0 mm | - | 4 W/m² | - |
| 1788129363 | 22.78° C | 86% | 1019.9 hPa | 0 mm | - | 5 W/m² | - |
| 1788129057 | 22.78° C | 86% | 1020 hPa | 0 mm | - | 6 W/m² | - |
| 1788128751 | 22.78° C | 86% | 1020.1 hPa | 0 mm | - | 9 W/m² | - |
| 1788128442 | 22.78° C | 86% | 1019.9 hPa | 0 mm | - | 12 W/m² | - |
| 1788128138 | 22.78° C | 86% | 1020.1 hPa | 0 mm | - | 13 W/m² | - |
| 1788127834 | 22.78° C | 85% | 1020 hPa | 0 mm | - | 16 W/m² | - |
| 1788127533 | 23.33° C | 85% | 1019.9 hPa | 0 mm | - | 22 W/m² | - |
| 1788127232 | 23.33° C | 84% | 1019.9 hPa | 0 mm | - | 24 W/m² | - |
| 1788126926 | 23.33° C | 83% | 1019.8 hPa | 0 mm | - | 27 W/m² | - |
| 1788126621 | 23.89° C | 83% | 1020 hPa | 0 mm | - | 41 W/m² | - |
* Rain latest hour (hover to see other rain measurements)
** Current wind speed in m/s (hover to see current wind gust speed)